When you browse on this site, cookies collect data to enhance your experience and personalize the content and advertising you see.
Visit our Privacy Policy to learn more. By continuing to use the site, you agree to this use of cookies and data.
  • In Romania
  • List of Countries
  • For 7 days
  • Water Temperature
  • Satellite Maps
  • Weather Map
  • Weather Widgets
  • user-avatar
    Login

    Hourly Weather Vaslui

    Today, 20 May, Monday

    Time Temperature Precipitation Wind Pressure Humidity
    00:00 +18°C° 0 mm 2 mps 744 mmHg 94%
    01:00 +18°C° 0 mm 2 mps 744 mmHg 94%
    02:00 +18°C° 0 mm 2 mps 744 mmHg 95%
    03:00 +17°C° 0 mm 2 mps 744 mmHg 94%
    04:00 +17°C° 0 mm 2 mps 744 mmHg 94%
    05:00 +16°C° 0 mm 2 mps 744 mmHg 94%
    06:00 +18°C° 0 mm 3 mps 744 mmHg 90%
    07:00 +19°C° 0 mm 4 mps 744 mmHg 86%
    08:00 +21°C° 0 mm 5 mps 744 mmHg 79%
    09:00 +23°C° 0 mm 6 mps 744 mmHg 72%
    10:00 +24°C° 0 mm 7 mps 744 mmHg 66%
    11:00 +27°C° 0 mm 8 mps 744 mmHg 59%
    12:00 +27°C° 0 mm 8 mps 743 mmHg 57%
    13:00 +28°C° 0 mm 8 mps 743 mmHg 54%
    14:00 +26°C° 0 mm 8 mps 744 mmHg 57%
    15:00 +26°C° 0 mm 8 mps 743 mmHg 59%
    16:00 +26°C° 0 mm 8 mps 743 mmHg 61%
    17:00 +24°C° 0 mm 7 mps 743 mmHg 63%
    18:00 +23°C° 0 mm 7 mps 743 mmHg 67%
    19:00 +21°C° 0 mm 7 mps 743 mmHg 72%
    20:00 +20°C° 0 mm 6 mps 742 mmHg 76%
    21:00 +19°C° 0 mm 6 mps 742 mmHg 77%
    22:00 +17°C° 0 mm 6 mps 742 mmHg 78%
    23:00 +16°C° 0 mm 6 mps 742 mmHg 79%

    Tomorrow, 21 May, Tuesday

    Time Temperature Precipitation Wind Pressure Humidity
    00:00 +15°C° 0.2 mm 6 mps 742 mmHg 82%
    01:00 +15°C° 0.2 mm 5 mps 742 mmHg 84%
    02:00 +14°C° 0.2 mm 5 mps 742 mmHg 87%
    03:00 +14°C° 0 mm 4 mps 742 mmHg 89%
    04:00 +14°C° 0 mm 4 mps 742 mmHg 92%
    05:00 +14°C° 0 mm 4 mps 742 mmHg 95%
    06:00 +17°C° 0 mm 4 mps 742 mmHg 89%
    07:00 +18°C° 0 mm 4 mps 742 mmHg 83%
    08:00 +19°C° 0 mm 4 mps 742 mmHg 77%
    09:00 +20°C° 0.1 mm 4 mps 742 mmHg 70%
    10:00 +22°C° 0.1 mm 5 mps 743 mmHg 63%
    11:00 +23°C° 0.1 mm 5 mps 743 mmHg 56%
    12:00 +25°C° 0.3 mm 5 mps 743 mmHg 53%
    13:00 +25°C° 0.3 mm 5 mps 743 mmHg 49%
    14:00 +26°C° 0.3 mm 6 mps 743 mmHg 46%
    15:00 +25°C° 0 mm 5 mps 743 mmHg 49%
    16:00 +23°C° 0 mm 5 mps 743 mmHg 52%
    17:00 +22°C° 0 mm 4 mps 743 mmHg 56%
    18:00 +21°C° 0 mm 4 mps 743 mmHg 61%
    19:00 +19°C° 0 mm 3 mps 743 mmHg 66%
    20:00 +17°C° 0 mm 3 mps 744 mmHg 71%
    21:00 +16°C° 0 mm 2 mps 744 mmHg 71%
    22:00 +15°C° 0 mm 2 mps 744 mmHg 71%
    23:00 +14°C° 0 mm 1 mps 744 mmHg 71%

    Day after tomorrow, 22 May, Wednesday

    Time Temperature Precipitation Wind Pressure Humidity
    00:00 +14°C° 0 mm 1 mps 745 mmHg 72%
    01:00 +14°C° 0 mm 1 mps 745 mmHg 73%
    02:00 +13°C° 0 mm 1 mps 745 mmHg 75%
    03:00 +13°C° 0 mm 1 mps 745 mmHg 76%
    04:00 +13°C° 0 mm 1 mps 745 mmHg 77%
    05:00 +13°C° 0 mm 1 mps 745 mmHg 79%
    06:00 +15°C° 0 mm 1 mps 745 mmHg 72%
    07:00 +18°C° 0 mm 1 mps 745 mmHg 66%
    08:00 +18°C° 0 mm 2 mps 745 mmHg 60%
    09:00 +20°C° 0 mm 2 mps 745 mmHg 55%
    10:00 +23°C° 0 mm 2 mps 745 mmHg 51%
    11:00 +24°C° 0 mm 2 mps 745 mmHg 46%
    12:00 +25°C° 0 mm 3 mps 745 mmHg 44%
    13:00 +26°C° 0 mm 3 mps 745 mmHg 42%
    14:00 +26°C° 0 mm 4 mps 745 mmHg 39%
    15:00 +26°C° 0 mm 4 mps 744 mmHg 44%
    16:00 +25°C° 0 mm 3 mps 744 mmHg 49%
    17:00 +24°C° 0 mm 3 mps 744 mmHg 53%
    18:00 +22°C° 0 mm 3 mps 744 mmHg 57%
    19:00 +21°C° 0 mm 3 mps 744 mmHg 60%
    20:00 +20°C° 0 mm 3 mps 744 mmHg 64%
    21:00 +18°C° 0 mm 3 mps 745 mmHg 67%
    22:00 +17°C° 0 mm 3 mps 745 mmHg 70%
    23:00 +16°C° 0 mm 3 mps 745 mmHg 72%

    23 May, Thursday

    Time Temperature Precipitation Wind Pressure Humidity
    00:00 +16°C° 0 mm 3 mps 745 mmHg 73%
    01:00 +15°C° 0 mm 2 mps 745 mmHg 74%
    02:00 +15°C° 0 mm 2 mps 745 mmHg 75%
    03:00 +15°C° 0 mm 2 mps 745 mmHg 76%
    04:00 +15°C° 0 mm 2 mps 745 mmHg 77%
    05:00 +15°C° 0 mm 2 mps 745 mmHg 78%
    06:00 +16°C° 0 mm 3 mps 745 mmHg 73%
    07:00 +18°C° 0 mm 3 mps 745 mmHg 67%
    08:00 +20°C° 0 mm 4 mps 745 mmHg 62%
    09:00 +22°C° 0 mm 3 mps 745 mmHg 58%
    10:00 +24°C° 0 mm 3 mps 745 mmHg 54%
    11:00 +25°C° 0 mm 3 mps 745 mmHg 49%
    12:00 +25°C° 0 mm 3 mps 745 mmHg 49%
    13:00 +26°C° 0 mm 3 mps 744 mmHg 48%
    14:00 +26°C° 0 mm 3 mps 744 mmHg 47%
    15:00 +26°C° 0 mm 3 mps 744 mmHg 48%
    16:00 +26°C° 0 mm 3 mps 744 mmHg 49%
    17:00 +26°C° 0 mm 3 mps 744 mmHg 50%
    18:00 +24°C° 0 mm 3 mps 744 mmHg 56%
    19:00 +23°C° 0 mm 2 mps 744 mmHg 62%
    20:00 +20°C° 0 mm 2 mps 744 mmHg 69%
    21:00 +19°C° 0.1 mm 2 mps 744 mmHg 72%
    22:00 +18°C° 0.1 mm 2 mps 744 mmHg 75%
    23:00 +17°C° 0.1 mm 2 mps 744 mmHg 77%

    24 May, Friday

    Time Temperature Precipitation Wind Pressure Humidity
    00:00 +17°C° 0 mm 3 mps 744 mmHg 81%
    01:00 +15°C° 0 mm 4 mps 744 mmHg 84%
    02:00 +14°C° 0 mm 5 mps 745 mmHg 87%
    03:00 +14°C° 0.1 mm 4 mps 744 mmHg 89%
    04:00 +13°C° 0.1 mm 4 mps 744 mmHg 91%
    05:00 +12°C° 0.1 mm 3 mps 744 mmHg 93%
    06:00 +13°C° 0.1 mm 4 mps 744 mmHg 88%
    07:00 +15°C° 0.1 mm 4 mps 744 mmHg 84%
    08:00 +16°C° 0.1 mm 5 mps 745 mmHg 79%
    09:00 +17°C° 0 mm 5 mps 745 mmHg 74%
    10:00 +19°C° 0 mm 4 mps 744 mmHg 69%
    11:00 +21°C° 0 mm 4 mps 744 mmHg 65%
    12:00 +21°C° 0.2 mm 4 mps 744 mmHg 64%
    13:00 +22°C° 0.2 mm 3 mps 744 mmHg 63%
    14:00 +22°C° 0.2 mm 3 mps 743 mmHg 62%
    15:00 +22°C° 1.3 mm 3 mps 743 mmHg 64%
    16:00 +21°C° 1.3 mm 2 mps 743 mmHg 67%
    17:00 +21°C° 1.3 mm 2 mps 743 mmHg 69%
    18:00 +20°C° 1.5 mm 2 mps 743 mmHg 75%
    19:00 +19°C° 1.5 mm 3 mps 743 mmHg 80%
    20:00 +17°C° 1.5 mm 3 mps 743 mmHg 86%
    21:00 +17°C° 0.2 mm 3 mps 743 mmHg 88%
    22:00 +16°C° 0.2 mm 3 mps 743 mmHg 90%
    23:00 +14°C° 0.2 mm 4 mps 743 mmHg 92%

    25 May, Saturday

    Time Temperature Precipitation Wind Pressure Humidity
    00:00 +14°C° 0 mm 4 mps 743 mmHg 91%
    01:00 +13°C° 0 mm 4 mps 743 mmHg 91%
    02:00 +13°C° 0 mm 4 mps 742 mmHg 90%
    03:00 +13°C° 0.1 mm 4 mps 742 mmHg 91%
    04:00 +13°C° 0.1 mm 3 mps 742 mmHg 92%
    05:00 +12°C° 0.1 mm 3 mps 743 mmHg 93%
    06:00 +13°C° 0.1 mm 3 mps 743 mmHg 90%
    07:00 +14°C° 0.1 mm 4 mps 743 mmHg 87%
    08:00 +15°C° 0.1 mm 4 mps 743 mmHg 84%
    09:00 +17°C° 0 mm 4 mps 743 mmHg 79%
    10:00 +18°C° 0 mm 4 mps 743 mmHg 74%
    11:00 +20°C° 0 mm 4 mps 743 mmHg 68%
    12:00 +20°C° 0 mm 4 mps 743 mmHg 65%
    13:00 +21°C° 0 mm 4 mps 743 mmHg 61%
    14:00 +22°C° 0 mm 4 mps 743 mmHg 58%
    15:00 +22°C° 0.1 mm 4 mps 742 mmHg 59%
    16:00 +22°C° 0.1 mm 4 mps 742 mmHg 60%
    17:00 +22°C° 0.1 mm 3 mps 742 mmHg 61%
    18:00 +21°C° 0.1 mm 3 mps 742 mmHg 67%
    19:00 +19°C° 0.1 mm 2 mps 743 mmHg 73%
    20:00 +19°C° 0.1 mm 1 mps 743 mmHg 79%
    21:00 +18°C° 0.1 mm 1 mps 743 mmHg 80%
    22:00 +18°C° 0.1 mm 1 mps 744 mmHg 81%
    23:00 +16°C° 0.1 mm 1 mps 744 mmHg 83%
    Show more